Harrison, AR

2:52 PM CDT on May 25, 2017 (GMT -0500)
Boone County

Weather History for KHRO - February, 2011

Change the Weather History Date:

Tuesday, February 22, 2011

  Actual Average Record
Temperature  
Mean Temperature 37 °F 42 °F  
Max Temperature 51 °F 52 °F 77 °F (1995)
Min Temperature 23 °F 32 °F 2 °F (1912)
Degree Days  
Heating Degree Days 28 23  
Month to date heating degree days 607 555  
Since 1 July heating degree days 2980 3041  
Cooling Degree Days 0 0  
Month to date cooling degree days 0 0  
Year to date cooling degree days 0 0  
Moisture  
Dew Point 19 °F    
Average Humidity 51    
Maximum Humidity 75    
Minimum Humidity 27    
Precipitation  
Precipitation 0.00 in 0.10 in 1.48 in (1979)
Month to date precipitation 1.93 2.02  
Year to date precipitation 2.18 4.58  
Snow  
Snow 0.00 in 0.10 in 4.00 in (1966)
Month to date snowfall 16.6 2.6  
Since 1 July snowfall 19.4 8.6  
Snow Depth 0.00 in    
Sea Level Pressure  
Sea Level Pressure 30.15 in    
Wind  
Wind Speed 6 mph (North)    
Max Wind Speed 14 mph    
Max Gust Speed 18 mph    
Visibility 10 miles    
Events      
T = Trace of Precipitation, MM = Missing Value Source: NWS Daily Summary

Daily Weather History Graph

Daily Weather History Graph

Search for Another Location

Airport or City:

Trip Planner

Search our weather history database for the weather conditions in past years. The results will help you decide how hot, cold, wet, or windy it might be!

Date:

Astronomy

Feb. 22, 2011 Rise Set
Actual Time 6:52 AM CST 6:00 PM CST
Civil Twilight 6:26 AM CST 6:26 PM CST
Nautical Twilight 5:56 AM CST 6:56 PM CST
Astronomical Twilight 5:26 AM CST 7:26 PM CST
Moon 11:34 PM CST (2/22) 9:10 AM CST (2/22)
Length of Visible Light 12h 00m
Length of Day
11h 08m
Waning Gibbous, 74% of the Moon is Illuminated
Feb 22
Waning Gibbous
Feb 24
Last Quarter
Mar 4
New
Mar 12
First Quarter
Mar 19
Full

Hourly Weather History & Observations

Time (CST) Temp. Windchill Dew Point Humidity Pressure Visibility Wind Dir Wind Speed Gust Speed Precip Events Conditions
12:53 AM 32.0 °F 23.6 °F 24.1 °F 73% 30.08 in 10.0 mi NW 10.4 mph - N/A   Clear
1:53 AM 30.0 °F 21.1 °F 21.0 °F 69% 30.10 in 10.0 mi NW 10.4 mph - N/A   Partly Cloudy
2:53 AM 27.0 °F 20.5 °F 19.0 °F 72% 30.13 in 10.0 mi WNW 5.8 mph - N/A   Clear
3:53 AM 26.1 °F 18.4 °F 18.0 °F 71% 30.12 in 10.0 mi WNW 6.9 mph - N/A   Clear
4:53 AM 25.0 °F 18.1 °F 17.1 °F 72% 30.14 in 10.0 mi WNW 5.8 mph - N/A   Partly Cloudy
5:53 AM 24.1 °F 17.0 °F 16.0 °F 71% 30.17 in 10.0 mi NW 5.8 mph - N/A   Clear
6:53 AM 23.0 °F - 16.0 °F 74% 30.19 in 10.0 mi Calm Calm - N/A   Clear
7:53 AM 26.1 °F 21.9 °F 17.1 °F 69% 30.20 in 10.0 mi WNW 3.5 mph - N/A   Clear
8:53 AM 30.0 °F 25.2 °F 16.0 °F 56% 30.22 in 10.0 mi North 4.6 mph - N/A   Clear
9:53 AM 33.1 °F - 16.0 °F 50% 30.24 in 10.0 mi Calm Calm - N/A   Clear
10:53 AM 37.0 °F 34.5 °F 17.1 °F 44% 30.23 in 10.0 mi WNW 3.5 mph - N/A   Clear
11:53 AM 43.0 °F 38.8 °F 18.0 °F 37% 30.22 in 10.0 mi North 6.9 mph - N/A   Clear
12:53 PM 46.0 °F 43.1 °F 18.0 °F 33% 30.18 in 10.0 mi NW 5.8 mph - N/A   Clear
1:53 PM 48.0 °F - 17.1 °F 29% 30.17 in 10.0 mi Variable 3.5 mph - N/A   Clear
2:53 PM 48.9 °F - 17.1 °F 28% 30.14 in 10.0 mi Calm Calm - N/A   Clear
3:53 PM 50.0 °F - 18.0 °F 28% 30.14 in 10.0 mi SE 5.8 mph - N/A   Clear
4:53 PM 50.0 °F - 19.0 °F 29% 30.13 in 10.0 mi ESE 6.9 mph - N/A   Clear
5:53 PM 46.0 °F 43.1 °F 18.0 °F 33% 30.14 in 10.0 mi East 5.8 mph - N/A   Clear
6:53 PM 44.1 °F 40.1 °F 19.9 °F 38% 30.14 in 10.0 mi ESE 6.9 mph - N/A   Clear
7:53 PM 42.1 °F 37.1 °F 19.9 °F 41% 30.14 in 10.0 mi ESE 8.1 mph - N/A   Clear
8:53 PM 41.0 °F 37.1 °F 19.9 °F 43% 30.14 in 10.0 mi ESE 5.8 mph - N/A   Clear
9:53 PM 39.9 °F 33.9 °F 21.0 °F 47% 30.13 in 10.0 mi ESE 9.2 mph - N/A   Partly Cloudy
10:53 PM 39.0 °F 31.8 °F 21.0 °F 49% 30.12 in 10.0 mi ESE 11.5 mph - N/A   Partly Cloudy
11:53 PM 39.0 °F 31.8 °F 23.0 °F 53% 30.11 in 10.0 mi ESE 11.5 mph - N/A   Clear